This is the latest recevied weather packets stored in our database for station/object KC5DP. If no packets are shown the sender has not sent any weather packets the latest 10 day(s).
| Time | Temp. | Humidity | Pressure | Rain* | Wind** | Luminosity | Snow |
|---|---|---|---|---|---|---|---|
| 1777690624 | 11.67° C | 99% | 1012.8 hPa | 0 mm | - | 0 W/m² | - |
| 1777690322 | 11.67° C | 99% | 1013 hPa | 0 mm | - | 0 W/m² | - |
| 1777690020 | 11.67° C | 99% | 1012.7 hPa | 0 mm | - | 0 W/m² | - |
| 1777689718 | 11.67° C | 99% | 1012.4 hPa | 0 mm | - | 0 W/m² | - |
| 1777689416 | 11.67° C | 99% | 1012.5 hPa | 0 mm | - | 0 W/m² | - |
| 1777689112 | 11.67° C | 99% | 1012.5 hPa | 0 mm | - | 0 W/m² | - |
| 1777688809 | 11.67° C | 99% | 1012.5 hPa | 0 mm | - | 0 W/m² | - |
| 1777688204 | 12.22° C | 99% | 1013 hPa | 1.78 mm | - | 0 W/m² | - |
| 1777687598 | 12.22° C | 99% | 1012.5 hPa | 6.1 mm | - | 0 W/m² | - |
| 1777671837 | 12.22° C | 99% | 1011.8 hPa | 3.05 mm | - | 45 W/m² | - |
| 1777670926 | 12.78° C | 99% | 1010.2 hPa | 13.72 mm | - | 39 W/m² | - |
| 1777670623 | 12.78° C | 99% | 1010.7 hPa | 14.99 mm | - | 34 W/m² | - |
| 1777667894 | 13.89° C | 99% | 1011.1 hPa | 13.72 mm | - | 13 W/m² | - |
| 1777667592 | 14.44° C | 98% | 1011.1 hPa | 14.99 mm | - | 24 W/m² | - |
| 1777667289 | 14.44° C | 98% | 1011 hPa | 11.94 mm | - | 24 W/m² | - |
| 1777666986 | 14.44° C | 98% | 1011.3 hPa | 7.11 mm | - | 25 W/m² | - |
| 1777666683 | 14.44° C | 98% | 1011.6 hPa | 7.87 mm | - | 18 W/m² | - |
| 1777666076 | 14.44° C | 98% | 1011.3 hPa | 8.89 mm | - | 20 W/m² | - |
| 1777665773 | 14.44° C | 98% | 1010.6 hPa | 8.89 mm | - | 38 W/m² | - |
| 1777664863 | 14.44° C | 98% | 1010.9 hPa | 10.67 mm | - | 27 W/m² | - |
| 1777664255 | 15° C | 98% | 1011.1 hPa | 10.67 mm | - | 25 W/m² | - |
| 1777663954 | 15° C | 98% | 1010.5 hPa | 10.16 mm | - | 32 W/m² | - |
| 1777663651 | 15° C | 98% | 1010.8 hPa | 11.94 mm | - | 24 W/m² | - |
| 1777663347 | 15° C | 97% | 1011.2 hPa | 18.54 mm | - | 18 W/m² | - |
| 1777663045 | 15° C | 97% | 1010.8 hPa | 16.76 mm | - | 20 W/m² | - |
* Rain latest hour (hover to see other rain measurements)
** Current wind speed in m/s (hover to see current wind gust speed)